venue,date_post,SEVERE_TOXICITY,SEVERE_TOXICITY80p,fixation_dict_incels,fixation_dict_td,NegativeEmotion,CoreHostility,We,They,fixation_dict_incels_norm,fixation_dict_td_norm,NegativeEmotion_norm,CoreHostility_norm,We_norm,They_norm,length,count_repeated,intervention_flag,date_idx
/r/Incels,2017-07-11,27.790797523334916,5.492888670917116,2.2264655337025014,0.08210807714340271,2.925338934504487,4.890204315447775,0.6625930876455987,1.4378460950926102,0.022542907414354746,0.000572155538677504,0.037348039314731046,0.0645963847109814,0.007004448244143385,0.010916889104847217,84.0,52370,0,-119
/r/Incels,2017-07-12,26.041247795994625,3.871829105473965,2.352458054675584,0.041065352575384254,3.1151003167898628,4.886776956470727,1.1087645195353748,2.1823301654347063,0.025100297834741103,0.0001838149586685957,0.03418383057022356,0.05766652814466134,0.008275635593243584,0.014647685122103423,68.0,17046,0,-118
/r/Incels,2017-07-13,27.030191875736264,4.703161141094834,2.2107637769900097,0.03867225265871737,2.7682887528198514,4.572993876893329,0.8250080567193039,1.5823396712858526,0.025530103971716768,0.00023612239046952112,0.036798885494226066,0.06255575209295679,0.007074544485430212,0.013063083787865085,81.0,31030,0,-117
/r/Incels,2017-07-14,25.74129120357665,5.0884955752212395,2.102151915913923,0.11611599535536019,2.7430518902779246,4.413915823443367,0.5835959766561609,1.3903759443849621,0.024063852997304257,0.0013471903415444918,0.03308166523948802,0.05575899657840768,0.005490312371681121,0.010906753433785683,80.0,66313,0,-116
/r/Incels,2017-07-15,25.863340359160315,4.41944556046605,1.8450539409775097,0.06732603433627751,2.832502444576247,4.743279419072504,0.43281022073321257,1.1878236057900389,0.02158237964461673,0.0009464341861037895,0.033603783717844074,0.05887634020312716,0.004751153916255541,0.009705683622208128,81.0,62383,0,-115
/r/Incels,2017-07-16,25.479574183852954,4.218852999340804,1.8448023426061493,0.06559297218155198,2.861493411420205,4.263543191800878,0.6125915080527087,1.3926793557833088,0.020197417238165493,0.0011568312161470498,0.03617806728205171,0.060128826951213424,0.005770501164898558,0.012128450833595409,88.0,85375,0,-114
/r/Incels,2017-07-17,25.135534863429136,4.326364692218351,1.8759947174155973,0.06433916900883817,2.8704299436750085,4.079329066630547,0.4831081462418024,1.3657963947490208,0.021333142222415797,0.00051778369015862,0.03452370268756361,0.05385916747902252,0.005464978763189465,0.011098036118922487,86.0,88593,0,-113
/r/Incels,2017-07-18,27.98494820878196,5.874427378065211,2.0798709313739785,0.05248272443653964,2.8204604873118155,4.641805405720617,0.4859511521901818,1.3606632261325091,0.023516779737044607,0.0004680607455189692,0.035682370999031945,0.06245280508012597,0.0048992889386305916,0.009817078701073907,88.0,102891,0,-112
/r/Incels,2017-07-19,25.427191302363024,4.092307692307692,1.98404979575958,0.05148918155085415,2.6957447051958305,4.090529423206746,0.44967218554412625,1.244893989496207,0.022962539610975788,0.000450146279596173,0.03438716738361607,0.05722239512464345,0.004830679870054553,0.009513650239368999,80.0,87397,0,-111
/r/Incels,2017-07-20,25.90402924063803,4.672245467224546,2.1105393303481925,0.03876228029138542,2.6505379937178373,4.195682683953753,0.5266323598208915,1.2965314442290983,0.02310181556775119,0.00042953763154265055,0.03176035497083867,0.054061631809795646,0.005459345611898473,0.009617979433814988,81.0,74815,0,-110
/r/Incels,2017-07-21,26.100600965915632,4.972565157750343,2.241876346945059,0.0657729015645554,2.6966889641467717,4.4669596126395925,0.5191860953287245,1.3014637969156706,0.023872004534731726,0.0006475919636313319,0.03313446580091868,0.05837293839638954,0.004728194061559277,0.01008498527336029,75.0,71458,0,-109
/r/Incels,2017-07-22,26.727359195527672,4.937388193202147,2.218898030416355,0.04855069611200777,2.8067551076644492,4.2134131139366735,0.5025653138080804,1.4158432731042265,0.02404261152310327,0.000548669046608699,0.03204510300688261,0.05599029757830787,0.004738201338732043,0.010939326360820173,83.0,76209,0,-108
/r/Incels,2017-07-23,24.798059362559126,3.655913978494624,2.2800748681299985,0.0765696784073507,2.3311213204015657,3.615790369236005,0.7146503318019397,1.539901310192275,0.026637952313545477,0.0009530378015924,0.02444937350397451,0.043157698888162045,0.005686241499565898,0.009685062290412487,81.0,11754,0,-107
/r/Incels,2017-08-01,24.771565312284345,3.4123222748815163,1.7778135306894056,0.0723996460461749,2.8115195881264583,3.9618695197490146,0.719974257903628,1.5525701874346391,0.019004440632103783,0.000455772968964786,0.030238454261013646,0.046375666334296836,0.007078240724675655,0.011082556314532706,80.0,24862,0,-98
/r/Incels,2017-08-02,26.628737606673493,3.798767967145791,1.7305665883115833,0.0607927372943179,2.812677312150442,4.482451163167707,0.9564724000972684,1.4266029018399935,0.020375634943796805,0.00046325387750758206,0.03206127375706083,0.054618045671198004,0.008568667877519767,0.011466616913860939,83.0,24674,0,-97
/r/Incels,2017-08-03,23.819113671918227,2.6290165530671863,1.6793471833484448,0.07884259076753262,2.9329443765522134,4.308747585445658,0.5952615602948713,1.580793944889029,0.02191859454276574,0.00040212854346178444,0.034188444170009706,0.05340716835077396,0.0054474395532362755,0.011520750486235883,80.0,25367,0,-96
/r/Incels,2017-08-04,28.419575837142848,6.384676775738228,1.739216527507343,0.07260486452592324,3.230916471403584,5.032837200092406,0.6534437807333091,1.706214316359196,0.019177748383916095,0.000564520503679613,0.03894277226325623,0.06487785754521358,0.0058290759461184834,0.012105641954830722,81.0,30301,0,-95
/r/Incels,2017-08-05,28.595171912345307,4.590818363273453,1.8273497377974992,0.04437273093989512,3.2311415893505444,5.022186365469947,0.6413876563130295,1.6458249294070189,0.019350160442800617,0.0006221841923411839,0.03775289152435728,0.059765962604412456,0.0062201943314841995,0.011371400116638241,86.0,24790,0,-94
/r/Incels,2017-08-06,28.335055837035455,5.370569280343716,2.217102117115159,0.06955614485067164,3.2995696213537364,5.212363604747207,0.5303656044863714,1.5302351867147763,0.02242922300941109,0.0005427818328162956,0.03645331316767191,0.06159260914277464,0.0058192452355276675,0.010897206350001036,89.0,23003,0,-93
/r/Incels,2017-08-07,25.54862135445602,3.9735099337748347,2.249013590530469,0.0394563787812363,3.0819815870232357,4.813678211310828,0.5786935554581324,1.709776413853573,0.02256729956785104,0.00022801444956434936,0.03178662142384619,0.05156977674297213,0.005420348843766694,0.011882839141335302,79.0,22810,0,-92
/r/Incels,2017-08-08,26.48770883801572,3.732809430255403,1.8460628590740116,0.08026360256843527,2.7331868874619802,4.507434944237918,0.5702940182494086,1.2250760392024334,0.018085166495523792,0.0010276851216344883,0.028341181651788325,0.047879387786877274,0.005899476134108446,0.010296322981629021,78.0,23672,0,-91
/r/Incels,2017-08-09,25.2176096830666,4.138357010500309,2.067375529127192,0.06551098568836927,2.7804374118121347,4.4660854666397904,0.5858193912517637,1.5432876436202378,0.020249413446083983,0.0007680032272743002,0.03167633621828997,0.05377447172611063,0.006435623164304722,0.01197837307362211,80.0,79376,0,-90
/r/Incels,2017-08-10,24.934785961854143,3.479504289799809,2.0777709317450537,0.053056753611282266,2.7212980078044775,3.8235092763743412,0.7017183542137331,1.5352228383651674,0.02069749510293771,0.0002721481939240111,0.03127603290077516,0.04783381280906222,0.007930818584087014,0.011681341455834953,88.0,58428,0,-89
/r/Incels,2017-08-11,25.23834334572028,3.582434514637904,2.097113420916268,0.08991983418172951,2.511659097143902,4.244520986374859,0.6096259944524034,1.4509098667967202,0.023250143727381788,0.0010578357203241018,0.028691011388511958,0.052169345806878556,0.005253220758383585,0.012354223972011042,83.0,65614,0,-88
/r/Incels,2017-08-12,25.822139807475047,4.0914117213416885,2.290944390514492,0.09846068506448483,2.655664956316738,4.310081819442519,0.5852170295382055,1.54763555678824,0.024369444035811278,0.0008229342268683714,0.03065924527000507,0.05339048295668408,0.005844757904518436,0.01321847913071098,83.0,72110,0,-87
/r/Incels,2017-08-13,26.468978979708652,3.838245373543523,1.9928075396825395,0.09672619047619048,2.761656746031746,4.358878968253968,0.5357142857142857,1.5153769841269842,0.024001369299261905,0.001050153846390935,0.030608203174745763,0.052536203837770676,0.005656758960524581,0.011321147758999988,88.0,80640,0,-86
/r/Incels,2017-08-14,24.94903522753776,3.3375314861460956,1.6378481043881503,0.05426605165141462,2.853900989122123,4.124219925507511,0.6980587553341062,1.2900520460768112,0.018029775533190257,0.0005034677812455816,0.03532018016440739,0.05533853576024107,0.005582301453715352,0.009336403624796874,83.0,40541,0,-85
/r/Incels,2017-08-15,26.774007119486132,4.751381215469613,2.006312922924575,0.06292292457501238,2.873824063376795,4.5108516256808056,0.5828106948341311,1.3729575837596963,0.021042597474256918,0.0005997306090618108,0.03319874798294473,0.055955504931688556,0.006163955874640425,0.010701081997215093,86.0,96944,0,-84
/r/Incels,2017-08-16,26.245338114803452,4.346436561201662,1.9969735603560235,0.07625674693483622,2.6666031193775543,4.266803293338258,0.44681687657130603,1.4167073766487541,0.02166135332617506,0.0006862016358785902,0.03412866423823185,0.05736560676995851,0.004250569728024501,0.010617508866980025,82.0,83927,0,-83
/r/Incels,2017-08-17,26.15730601459778,4.499404052443385,1.954221325959959,0.048855533148998986,2.852331552358579,4.166233550238041,0.6122533835055405,1.5664954990540738,0.02240002181573707,0.0006394946914441253,0.03434609461942118,0.054354199413978684,0.005980515574458346,0.013878812764144847,89.0,96202,0,-82
/r/Incels,2017-08-18,24.250980913045463,3.717472118959108,1.8493353028064992,0.06499261447562778,2.5603151157065485,3.8670605612998523,0.5987198424421467,1.2673559822747416,0.019958425135788972,0.0009989505696806791,0.031109838580760347,0.04944550854814465,0.006147516275863192,0.010096208418131759,87.0,101550,0,-81
/r/Incels,2017-08-19,26.42282601988668,4.530201342281879,2.094485976932561,0.0639895119629173,2.7687169322491534,4.351286813478376,0.7226132692397733,1.5544769247576984,0.023769080699532822,0.0005680745547546021,0.032740226014895055,0.054178199952598184,0.007323070903847316,0.01221337934739174,84.5,64073,0,-80
/r/Incels,2017-08-20,25.799852975864866,4.3678160919540225,2.06061005481047,0.05272349820410584,2.9052844322887488,4.407904131105766,0.5426126690172559,1.593787414461616,0.02120099511145313,0.0003786591290565388,0.0340917041056578,0.056029930001431125,0.006150900274863231,0.01250901009977341,80.0,91041,0,-79
/r/Incels,2017-08-21,25.99596523884716,4.717348927875244,2.0915406128770337,0.06465582052747121,2.825308994677172,4.4326827654647705,0.7292575106005473,1.2795837969506512,0.025695560182124207,0.0005279010730117217,0.03729956486171372,0.05998329602402796,0.007551611885013215,0.010554721503223983,74.0,66506,0,-78
/r/Incels,2017-08-22,26.802098800707164,5.33946251768034,2.0792439113049803,0.09305707015630679,2.678298800436205,4.395492548164304,0.6281352235550709,1.3493275172664485,0.02275018729333211,0.0007142060372588385,0.03099245770936443,0.053437232649513486,0.0059623416932147845,0.010022749639718798,79.0,68775,0,-77
/r/Incels,2017-08-23,26.264043478763988,3.864072348588654,2.0335260255126055,0.07844462412956639,2.9458973461580236,4.75012370113805,0.6082475470969455,1.377004863566696,0.021872620474751314,0.0007293073970146102,0.03435444248979276,0.05726896739426755,0.006341215253117953,0.011428994774492184,75.0,82861,0,-76
/r/Incels,2017-08-24,25.476052312983704,4.1154615604458415,2.1208084786007992,0.06138877627845023,2.7694446053164996,4.1466380957896565,0.6741182602652458,1.400359066427289,0.021384249344209127,0.0006751848720583367,0.033408446482180824,0.054385647849195196,0.006456253465271737,0.011183141651082364,75.0,86335,0,-75
/r/Incels,2017-08-25,25.704762631963906,4.666846506609118,1.930517697262973,0.07963002664543199,2.7594866925974704,4.161179341112574,0.5502639020754851,1.4588629240554143,0.022866784942816614,0.0007071020216975657,0.032900521299399244,0.05451243091956498,0.005348870068287823,0.01154487043813497,81.0,97953,0,-74
/r/Incels,2017-08-26,25.70094601947119,4.909630428918263,1.7944486121530383,0.06301575393848463,2.9437359339834956,4.337084271067767,0.5351337834458615,1.401350337584396,0.02012951397007719,0.0006550126580340127,0.03277412303507535,0.053582923212440355,0.005174297874422552,0.011030242305774358,82.0,99975,0,-73
/r/Incels,2017-08-27,25.32546497863214,4.440789473684211,1.8698666666666666,0.046933333333333334,2.6592000000000002,4.013866666666667,0.40746666666666664,1.2106666666666666,0.019511024717732695,0.00032308220240528327,0.03214528467851378,0.053610049825554236,0.004415952400501921,0.010046884600869955,79.0,93750,0,-72
/r/Incels,2017-08-28,25.889028719250106,5.138961719979025,2.177063801753408,0.058784776769877874,2.743627426138955,4.4321694623219985,0.4895352962043278,1.3479957431713374,0.023735145529402892,0.00043509355895129785,0.033588686184395436,0.05597137591653553,0.004971950730371868,0.011311546830686345,81.0,98665,0,-71
/r/Incels,2017-08-29,26.381339707983216,4.313831221353465,2.0753310783695467,0.04586367024021097,2.726595195780542,4.484320357736628,0.5870549790747004,1.3827896577423608,0.020649483152463236,0.0003586611907344445,0.030659586238699677,0.054625827043296465,0.006702446767174925,0.009885420034110056,79.0,87215,0,-70
/r/Incels,2017-08-30,26.567300904964082,4.901374775851764,2.0485788366518274,0.05870554278166431,2.8704564355951274,4.7025585832395675,0.5479183992955334,1.3844723839342499,0.022317097177465578,0.00034243483998137674,0.034487994326906954,0.061806019776747594,0.005408980067635096,0.010263375736224871,79.0,81764,0,-69
/r/Incels,2017-08-31,26.423521715748556,5.4221742649042355,2.119370056563475,0.05867580444527895,2.825826742084634,4.771516417490084,0.5808904640082615,1.4962330133546131,0.021493813821944156,0.0005087902047368241,0.0315154020405773,0.05668729184149447,0.005414869605032822,0.011711142067518247,73.0,85214,0,-68
/r/Incels,2017-09-01,24.96936750819291,4.342757213640338,1.862689572714115,0.052860109495941096,2.7625700081807314,4.503177899439934,0.49965389214020517,1.25605688754641,0.021390079935013618,0.0004284934022927658,0.03050574318246881,0.054637924879647255,0.004873012204096939,0.009641608881319525,77.0,79455,0,-67
/r/Incels,2017-09-02,24.70945081777422,4.6263345195729535,1.7205686787951906,0.04250010282282941,2.811861641600746,4.529688378278335,0.4990334654035453,1.2462126924500625,0.02042241102636101,0.000631262683501751,0.033041067580240474,0.056053684176235755,0.004393703883508283,0.009069280434590007,71.0,72941,0,-66
/r/Incels,2017-09-03,25.46753301469023,3.8874841972187104,1.7344653367362886,0.05078389499453096,2.7214959112453774,4.3153289233814265,0.5156518568675452,1.2852231887077452,0.01941462691403639,0.00037133006829270137,0.029750873873117006,0.05149035552403445,0.005419322751685462,0.010480258992845538,80.0,76796,0,-65
/r/Incels,2017-09-04,24.55895402803735,4.7578589634664405,1.685532220638641,0.06242711928291264,2.618405399356883,4.254467072639254,0.6136703612527827,1.3156809856417626,0.018932879736829365,0.0006744611847243888,0.02946913732684139,0.0513706479252478,0.005888145716825352,0.010026380851532712,76.0,84899,0,-64
/r/Incels,2017-09-05,24.930284206413393,4.204753199268739,2.1159939712566604,0.04865718049440442,2.841104636673273,4.570214684974426,0.449782229448275,1.3066233103497382,0.02139351881699517,0.0003178176270291446,0.033155152533791414,0.0561089904262711,0.004182028269254233,0.010617266057760361,68.0,84263,0,-63
/r/Incels,2017-09-06,26.35235604711937,4.576122029920797,1.9425583675247813,0.05930552025465065,2.8841847911598464,4.6439853309611125,0.5724798179683623,1.3083523958219867,0.01956652358843725,0.0005533914590355884,0.033300668992959914,0.056884703513329304,0.005437435866412195,0.010054215338151339,79.0,82623,0,-62
/r/Incels,2017-09-07,26.218055160302377,4.602622424404602,1.9508287120368732,0.04369856314962596,2.7342815227908814,4.223153995817423,0.4546731451520606,1.3608981095169228,0.021589737957457545,0.00038244649770466567,0.032533739359622955,0.0543100736415353,0.003918106069165846,0.01130873269522839,81.0,96113,0,-61
/r/Incels,2017-09-08,27.40237675511316,4.463130659767141,2.1411805118222933,0.10877655006583845,2.8911661991183375,4.8820633194023015,0.6197400812961584,1.542909486460182,0.024080006588815008,0.0012219974365679958,0.03614907786925877,0.06012990160905951,0.006069357952479779,0.01169332259658099,74.0,69868,0,-60
/r/Incels,2017-09-09,25.26003156961854,4.577564283695959,1.8338767504903246,0.08869567389973641,2.9594373446264166,4.810803382927956,0.4809554148084298,1.4491124186435809,0.019335311339997562,0.0010557736574629475,0.03324718432116575,0.05602274952888759,0.004899553141313155,0.011249629057804739,72.0,80049,0,-59
/r/Incels,2017-09-10,25.53608498684397,4.517782761935277,1.7443452938717259,0.07208038404428618,2.7736531780241327,4.502140787406115,0.521861980480632,1.3536696123516945,0.019103818152030834,0.0007247902449460395,0.03298015001115108,0.057959976594829085,0.005159133531939202,0.011247017343241236,67.0,69367,0,-58
/r/Incels,2017-09-11,27.107011156377585,5.1977040816326525,2.4615384615384617,0.07017543859649122,2.782726045883941,4.873144399460188,0.5276653171390013,1.58029689608637,0.024723012409602774,0.0011559448872212686,0.032897836361699004,0.05929899494372121,0.004883804666976356,0.012628956254014905,78.0,74100,0,-57
/r/Incels,2017-09-12,27.212235557641772,4.514404514404514,2.221040674771008,0.03262682166420958,2.832491480774343,4.550837421756048,0.5498223650820504,1.5080842013679097,0.02246285103485517,0.0003883724061563292,0.03455016674139647,0.056363191293425735,0.004784333197217606,0.011145916905190836,75.0,82754,0,-56
/r/Incels,2017-09-13,25.827330849518958,5.2508066881783515,2.1075285749904857,0.056428224610579635,2.8647166122068684,4.732097161529074,0.4816083356298308,1.3674002335866042,0.022757021681264186,0.0005508526056738676,0.034997675292369905,0.05876976796831042,0.004189276750977967,0.010261250292026743,69.0,76203,0,-55
/r/Incels,2017-09-14,26.207055543919083,4.431847461994332,2.040748162992652,0.09018036072144289,2.81563126252505,4.399910932977065,0.6067690937430416,1.42395902916945,0.021119894151907338,0.00118740199842698,0.032618157477086664,0.05455329376116414,0.006125788342276056,0.009643516936027,71.0,89820,0,-54
/r/Incels,2017-09-15,25.362430523832042,4.186684969114619,2.0617591041079066,0.05307910868728079,2.8798018379942345,4.49715350270079,0.5214241853397583,1.4747666080368016,0.02102362907164626,0.0005366394318092806,0.033106704721222055,0.05541739432600043,0.005702371860508355,0.010393156855300775,66.0,96083,0,-53
/r/Incels,2017-09-16,26.101097948972154,4.768649669499528,2.00690903109064,0.07299720348741569,2.931197565389044,4.690327356473104,0.575752590886659,1.4856473104128969,0.02056535568700382,0.0007857036391252527,0.03426249059837281,0.06064507011249708,0.005556422328945149,0.011251555300502898,70.0,97264,0,-52
/r/Incels,2017-09-17,26.45130834006928,5.647309536494406,1.8705693545472901,0.05739246883270095,2.888754264579281,4.625407858516936,0.5877413937867338,1.4709477197121874,0.019839192074917317,0.0005792709240004095,0.03494889680357511,0.06097432100211863,0.005615648184537468,0.01060025132980204,72.0,94089,0,-51
/r/Incels,2017-09-18,26.7869651578582,5.508350424846176,1.9014458675770693,0.06217569721565923,2.597813676392453,4.242643484552165,0.5980171604924315,1.305689641528844,0.021585551973887243,0.0007939190431801674,0.03343930945996492,0.059271288135081285,0.00563242470769729,0.010511032382174847,76.0,88459,0,-50
/r/Incels,2017-09-19,26.090487616883756,5.316533497234174,1.9802102659245517,0.05565862708719852,3.0092764378478662,4.562770562770563,0.6567717996289425,1.5485466914038344,0.02314619067369747,0.0005692411065209075,0.03547148559209418,0.05744253172806507,0.006388718323833747,0.011627619093337462,73.0,80850,0,-49
/r/Incels,2017-09-20,26.623367591408208,3.9396479463537304,1.9014435042309608,0.05641280902604944,3.1093412974946077,4.5528455284552845,0.6172224987555999,1.7023394723743157,0.020707659673170842,0.00048767529573740356,0.03529078137647655,0.05426538539858591,0.0060954785880597715,0.014593001935227059,76.0,30135,0,-48
/r/Incels,2017-09-21,28.12139734847918,5.267629566694987,2.1492393141753197,0.06842147629397086,3.2681316912179024,5.799726314094824,0.6238428720920872,1.7065121146260969,0.0234722336738101,0.0005682610703570307,0.03341800806212416,0.06055219428581712,0.006057017091616035,0.014317541153735364,73.0,24846,0,-47
/r/Incels,2017-09-22,25.847315067986,5.604203152364273,2.276008083918776,0.0336829948994322,3.156577807718218,5.6491194302762,0.9046290058704649,1.4194976421903571,0.023245446255022333,0.00018711137231753239,0.03774199478350085,0.06344995539099675,0.00782225842012914,0.01024643400048472,63.0,20782,0,-46
/r/Incels,2017-09-23,27.34533134307326,5.698778833107191,2.0591769787911267,0.051966611452142,3.2414173893273572,5.277858975608172,0.7502679528403001,1.8253272272564878,0.022331746488547747,0.0002928556223536159,0.03528384441008292,0.06297342004463234,0.00730719454745666,0.013323241855286078,67.0,30789,0,-45
/r/Incels,2017-09-24,24.14792260603672,4.896710022953328,2.1400146186956874,0.06903272963534475,2.7450661902054736,4.6658003735888895,0.6740843011451312,1.5633882888004547,0.021977945768607444,0.0005392632450200649,0.031146821560883487,0.05823131036346362,0.006711991383236157,0.011844832023142654,59.0,24626,0,-44
/r/Incels,2017-09-25,25.277788791305785,3.201347935973041,2.0435744123187813,0.07371611106560734,2.784830862478499,4.570398886067655,0.7125890736342043,1.7159472520271932,0.022627615410620926,0.0006949133101351816,0.027544570285094955,0.04788901362738288,0.007645784638929051,0.012310035446063095,70.0,24418,0,-43
/r/Incels,2017-09-26,27.85699236666021,5.614714424007745,2.4553904269595908,0.03976340772404195,3.116457080371788,5.199065559918485,0.8499428401013966,1.4712460857895522,0.027919988072523477,0.00044166881746616473,0.03865036860878917,0.06867349476507836,0.007586739213944195,0.009458874200850337,69.0,20119,0,-42
/r/Incels,2017-09-27,25.98114315552828,5.241605241605242,2.298997110317865,0.0764915859255482,2.9619241883392826,5.073941866394697,0.6629270780214177,1.5255821859595444,0.02571061647358606,0.0016770317727940445,0.03577582841422029,0.05968799732334376,0.00727778245650612,0.011710124751494012,63.0,23532,0,-41
/r/Incels,2017-09-28,28.090719058933615,6.257982120051085,2.2845790911348396,0.046117279789989,3.1749973393877045,5.785944872113236,0.5392174252367945,1.216786689843556,0.024053755236921586,0.0006849763779515233,0.03831279629332435,0.07212844923391562,0.0052899618793731075,0.00837684107100965,58.5,28189,0,-40
/r/Incels,2017-09-29,24.558476019535657,3.6041539401343923,2.055772342248025,0.05710478728466736,2.6934424669268107,4.292376510897497,0.4881099675046568,1.2998137296224286,0.01968526848301136,0.0003666209545818173,0.031197513074844908,0.0540619710456064,0.0049313735258778675,0.009428357925440632,63.0,73549,0,-39
/r/Incels,2017-09-30,26.993529075185705,4.765751211631664,2.11913944394426,0.0550949379846003,2.9710953142427132,5.2756762567692865,0.44344706182727067,1.4432186194014809,0.02174066467157008,0.0003819351405547454,0.03422918659005605,0.06223826961931125,0.004147133588532557,0.01094775814841435,65.0,74417,0,-38
/r/Incels,2017-10-01,26.889597338701282,5.12987012987013,2.0289460962049795,0.06798404641044235,2.852308436064781,5.148658448150834,0.4562484892434131,1.4276649746192893,0.023013918179495718,0.0007867941487132192,0.0334150949453137,0.06183982247510612,0.004030435154705531,0.009645528099985324,68.0,66192,0,-37